sat.trackr.live / text

‹ back to catalog

INTELSAT 23 (IS-23)

NORAD 38867 · 2012-057A

PAYLOAD ACTIVE UNKNOWN

§ Identity

Operator
Country
ITSO
Launch date
2012-10-14
Launch site
TYMSC
Launch vehicle
Mass (kg)
RCS (m²)
113.21

Purposes: comms

External: N2YO · Heavens-Above · Gunter

§ Orbital elements

Epoch: 2026-05-25T02:42:29.668032Z

Period
1,436.04 min
Inclination
0.0130°
Eccentricity
0.0000370
Mean motion
1.00275875 rev/d
Perigee alt
35,783.9 km
Apogee alt
35,787.0 km
Semi-major
42,163.6 km
B*
0.0000e+0
RAAN
311.3818°
Arg perigee
191.4986°
Mean anomaly
87.4432°
Rev number
4,972

§ Raw data

INTELSAT 23 (IS-23)1 38867U 12057A   26145.11284338 -.00000287  00000+0  00000+0 0  99912 38867   0.0130 311.3818 0000370 191.4986  87.4432  1.00275875 49726

JSON: /api/v1/satellites/38867 · /tle

For live sub-satellite position, see the globe view (requires WebGL).

§ Visibility from observer

Set your observer location to see the next 7 days of passes ≥ 10°. The values pass through the URL so the page stays shareable.

No JS? Fill the form by hand. The geolocation button needs JavaScript.